Tracking 19149 objects as of 21-Apr-2018
HD Live streaming from Space Station
objects crossing your sky now

COSMOS 873

Track COSMOS 873 now!
10-day predictions
COSMOS 873 is classified as:


NORAD ID: 9590
Int'l Code: 1976-118C
Perigee: 1,471.1 km
Apogee: 1,502.6 km
Inclination: 74.0 °
Period: 115.5 minutes
Semi major axis: 7857 km
RCS: 0.696 m2 (medium)
Launch date: December 7, 1976
Source: Commonwealth of Independent States (former USSR) (CIS)
Launch site: PLESETSK MISSILE AND SPACE COMPLEX (PKMTR)
aabbcc
Your satellite tracking list
Your tracking list is empty




NASA's NSSDC Master Catalog

Two Line Element Set (TLE):
1 09590U 76118C   18111.12941303 -.00000023  00000-0 -47381-4 0  9995
2 09590  74.0278 101.9387 0020052  23.2228  45.9028 12.46373218882429
Source of the keplerian elements: AFSPC